Torna al catalogo

COSMOS 1275 DEB

AttivoPO
NORAD 17616·DEBRIS·🇷🇺 Russia

Lanciato Jun 4, 1981 da Plesetsk Cosmodrome

Loading…

Prossimi Passaggi (prossime 24 ore)

TLE

AggiornatoSource: Space-Track

Epoca: Sep 14, 2026, 20:13 UTC

1 17616U 81053KK  26257.84294704  .00000597  00000-0  62971-3 0  9997
2 17616  83.0411 291.3512 0115991 258.4215 282.0269 13.70352096 54448

Traccia COSMOS 1275 DEB in tempo reale con AllMySat

Download on the App Store